Flag for Italy Weather past 2 weeks in Modena, Italy

Now
57 °F

Drizzle. Fog.


Feels Like: 57 °F
Forecast: 51 / 76 °F
Wind: 5 mph from Northeast

Location: Bologna / Borgo Panigale

Current Time: May 27, 2015 at 4:24:58 AM

Latest Report: May 27, 2015 at 3:50 AM


Visibility: 2 mi

Pressure: 29.92 "Hg

Humidity: 100%

Dew point: 57 °F

Location of ModenaLocation

Historic Weather in Modena — Graph

°F

Modena temperature yesterday

Maximum temperature yesterday: 68 °F (at 4:20 PM)
Minimum temperature yesterday: 57 °F (at 4:20 AM)
Average temperature yesterday: 61 °F

Past Weeks' High & Low Weather Summary

 TemperatureHumidityPressure
High84 °F (May 14, 3:50 PM)100% (May 16, 7:50 AM)30.27 "Hg (May 16, 7:50 AM)
Low48 °F (May 21, 3:50 AM)30% (May 19, 3:20 PM)29.65 "Hg (May 15, 3:20 AM)
Average65 °F71%29.91 "Hg
* Reported May 12 2:20 AM — May 27 2:50 AM, Modena, Weather by CustomWeather, © 2015

Note: Actual official high and low records may vary slightly from our data, if they occured in-between our weather recording intervals... More about our weather records

Advertising

Modena weather history for previous 24 hours

 ConditionsComfort  
Time TempWeatherWind HumidityBarometerVisibility
2:50 AM
Wed, May 27
59 °FLight rain. Fog.7 mph94%29.92 "Hg1 mi
2:20 AM59 °FPassing clouds.6 mph94%29.92 "Hg4 mi
1:20 AM59 °FDrizzle. Fog.6 mph94%29.92 "Hg1 mi
12:50 AM59 °FLight rain. Passing clouds.5 mph94%29.92 "HgN/A
12:20 AM59 °FLight rain. Passing clouds.2 mph94%29.92 "HgN/A
11:50 PM
Tue, May 26
59 °FPassing clouds.2 mph94%29.92 "HgN/A
11:20 PM59 °FPassing clouds.2 mph94%29.89 "HgN/A
10:50 PM59 °FPassing clouds.1 mph94%29.89 "HgN/A
10:20 PM59 °FPassing clouds.5 mph94%29.89 "HgN/A
9:50 PM59 °FPartly cloudy.5 mph94%29.89 "Hg6 mi
9:20 PM59 °FBroken clouds.6 mph94%29.86 "Hg6 mi
8:50 PM59 °FLight rain. Broken clouds.6 mph94%29.86 "Hg6 mi
8:20 PM59 °FLight rain. Broken clouds.7 mph94%29.86 "Hg6 mi
7:50 PM61 °FLight rain. Partly sunny.3 mph88%29.86 "Hg4 mi
7:20 PM61 °FLight rain. Partly sunny.1 mph88%29.86 "Hg4 mi
6:50 PM63 °FThunderstorms. Partly sunny.6 mph83%29.86 "Hg5 mi
6:20 PM66 °FBroken clouds.7 mph64%29.83 "HgN/A
5:50 PM66 °FPartly sunny.8 mph68%29.83 "HgN/A
5:20 PM68 °FScattered clouds.8 mph64%29.83 "HgN/A
4:50 PM68 °FScattered clouds.8 mph69%29.83 "HgN/A
4:20 PM68 °FPartly sunny.9 mph69%29.83 "HgN/A
3:50 PM66 °FPartly sunny.9 mph68%29.83 "HgN/A
3:20 PM66 °FPartly sunny.8 mph68%29.83 "HgN/A
10:20 AM61 °FScattered clouds.5 mph88%29.83 "Hg4 mi
9:50 AM61 °FScattered clouds.8 mph88%29.83 "Hg6 mi
9:20 AM59 °FScattered clouds.9 mph88%29.83 "HgN/A
8:50 AM59 °FScattered clouds.2 mph88%29.86 "HgN/A
8:20 AM59 °FScattered clouds.5 mph82%29.86 "HgN/A
7:50 AM59 °FScattered clouds.6 mph82%29.83 "HgN/A
7:20 AM59 °FLight rain. Scattered clouds.7 mph82%29.83 "HgN/A
6:50 AM59 °FScattered clouds.6 mph82%29.83 "HgN/A
6:20 AM61 °FPassing clouds.5 mph72%29.80 "HgN/A
5:50 AM59 °FClear.8 mph77%29.80 "Hg10 mi
5:20 AM59 °FClear.2 mph82%29.80 "Hg10 mi
4:20 AM57 °FPassing clouds.3 mph88%29.80 "HgN/A
Weather by CustomWeather, © 2015

See weather overviewHow to use our weather pages